Weather History for Copper Harbor, MI

Change the Weather History Date:

Thursday, September 19, 2013

  Actual Average Record
Temperature  
Mean Temperature 68 °F -  
Max Temperature 75 °F 60 °F 79 °F (2008)
Min Temperature 62 °F 46 °F 43 °F (2010)
Cooling Degree Days 4    
Growing Degree Days 18 (Base 50)    
Moisture  
Dew Point 63 °F    
Average Humidity 86    
Maximum Humidity 93    
Minimum Humidity 73    
Precipitation  
Precipitation 0.00 in - - ()
Sea Level Pressure  
Sea Level Pressure 29.72 in    
Wind  
Wind Speed 5 mph (SW)    
Max Wind Speed 9 mph    
Max Gust Speed 18 mph    
Averages and records for this station are not official NWS values.
T = Trace of Precipitation, MM = Missing Value Source: NWS Daily Summary

Daily Weather History Graph

Daily Weather History Graph

Search for Another Location

Airport:

Trip Planner

Search our weather history database for the weather conditions in past years. The results will help you decide how hot, cold, wet, or windy it might be!

Date:

Astronomy

Sep. 19, 2013 Rise Set
Actual Time 7:34 AM EDT 7:54 PM EDT
Civil Twilight 7:03 AM EDT 8:25 PM EDT
Nautical Twilight 6:27 AM EDT 9:01 PM EDT
Astronomical Twilight 5:49 AM EDT 9:39 PM EDT
Moon 7:47 PM EDT (9/19) 7:47 AM EDT (9/19)
Length of Visible Light 13h 21m
Length of Day
12h 20m
Full, 100% of the Moon is Illuminated
Sep 19
Full
Sep 26
Last Quarter
Oct 4
New
Oct 11
First Quarter
Oct 18
Full

Hourly Weather History & Observations

Time (EDT) Temp. Dew Point Humidity Pressure Visibility Wind Dir Wind Speed Gust Speed Precip Events Conditions
12:51 AM 63.0 °F 59.0 °F 87% 29.84 in - SW 4.6 mph - N/A   Unknown
1:51 AM 62.1 °F 60.1 °F 93% 29.82 in - Variable 6.9 mph - N/A   Unknown
2:51 AM 63.0 °F 60.1 °F 90% 29.81 in - Calm Calm - N/A   Unknown
3:51 AM 63.0 °F 61.0 °F 93% 29.80 in - SW 9.2 mph - N/A   Unknown
4:51 AM 63.0 °F 61.0 °F 93% 29.79 in - Calm Calm - N/A   Unknown
5:51 AM 63.0 °F 61.0 °F 93% 29.78 in - Calm Calm - N/A   Unknown
6:51 AM 63.0 °F 61.0 °F 93% 29.77 in - Calm Calm - N/A   Unknown
7:51 AM 63.0 °F 61.0 °F 93% 29.78 in - WSW 6.9 mph - N/A   Unknown
8:51 AM 66.0 °F 62.1 °F 87% 29.76 in - WSW 8.1 mph - N/A   Unknown
9:51 AM 66.9 °F 63.0 °F 87% 29.75 in - WSW 9.2 mph 18.4 mph N/A   Unknown
10:51 AM 71.1 °F 64.0 °F 78% 29.75 in - Variable 3.5 mph - N/A   Unknown
11:51 AM 71.1 °F 64.0 °F 78% 29.71 in - SW 9.2 mph 16.1 mph N/A   Unknown
12:51 PM 71.1 °F 64.0 °F 78% 29.73 in - ENE 4.6 mph - N/A   Unknown
1:51 PM 73.9 °F 64.9 °F 73% 29.71 in - Variable 5.8 mph - N/A   Unknown
2:51 PM 73.9 °F 66.0 °F 76% 29.69 in - Variable 3.5 mph - N/A   Unknown
3:51 PM 75.0 °F 66.0 °F 73% 29.65 in - SSW 8.1 mph - N/A   Unknown
4:51 PM 75.0 °F 66.0 °F 73% 29.66 in - WSW 8.1 mph - N/A   Unknown
5:51 PM 72.0 °F 64.9 °F 78% 29.67 in - Calm Calm - N/A   Unknown
6:51 PM 68.0 °F 64.9 °F 90% 29.65 in - SSW 5.8 mph - N/A   Unknown
7:51 PM 64.9 °F 63.0 °F 93% 29.64 in - South 3.5 mph - N/A   Unknown
8:51 PM 64.9 °F 63.0 °F 93% 29.63 in - NNW 4.6 mph - N/A   Unknown
9:51 PM 66.9 °F 64.0 °F 90% 29.61 in - Variable 4.6 mph - N/A   Unknown
10:51 PM 66.9 °F 64.0 °F 90% 29.59 in - WSW 6.9 mph - N/A   Unknown
11:51 PM 68.0 °F 64.9 °F 90% 29.60 in - Variable 4.6 mph - N/A   Unknown